Precipitable_Water
0.56 0.56 0.50 0.48 0.44 0.50 0.52 0.45 0.36 0.59 0.67 0.40 0.42 0.34 0.39 0.48 0.44 0.49 0.44 0.42 0.40 0.36 0.38 0.37 0.37 0.39 0.42 0.49 0.47 0.40 0.45 0.42 0.36 0.40 0.51 0.56 0.52 0.46 0.44 0.34 0.29 0.30 0.30 0.26
0.56 0.57 0.52 0.47 0.41 0.48 0.50 0.34 0.40 0.60 0.61 0.30 0.33 0.41 0.42 0.45 0.43 0.43 0.42 0.38 0.41 0.41 0.36 0.33 0.39 0.40 0.47 0.48 0.44 0.39 0.40 0.35 0.29 0.34 0.39 0.46 0.42 0.44 0.44 0.39 0.37 0.28 0.25 0.24
0.56 0.56 0.53 0.50 0.40 0.40 0.53 0.40 0.34 0.45 0.54 0.48 0.39 0.36 0.38 0.39 0.49 0.45 0.45 0.41 0.42 0.38 0.35 0.39 0.36 0.40 0.46 0.48 0.43 0.43 0.40 0.33 0.32 0.26 0.32 0.38 0.34 0.38 0.40 0.38 0.31 0.29 0.28 0.28
0.56 0.54 0.53 0.53 0.44 0.42 0.51 0.39 0.38 0.45 0.34 0.40 0.40 0.42 0.41 0.39 0.38 0.47 0.46 0.40 0.39 0.36 0.31 0.33 0.34 0.38 0.39 0.45 0.44 0.39 0.38 0.28 0.30 0.31 0.33 0.33 0.33 0.34 0.35 0.34 0.34 0.29 0.30 0.29
0.58 0.53 0.54 0.53 0.49 0.40 0.38 0.34 0.37 0.45 0.43 0.45 0.41 0.39 0.37 0.38 0.42 0.43 0.40 0.39 0.40 0.39 0.35 0.35 0.31 0.36 0.36 0.38 0.40 0.36 0.37 0.27 0.29 0.26 0.30 0.31 0.28 0.31 0.33 0.33 0.34 0.34 0.32 0.31
0.60 0.56 0.54 0.53 0.49 0.45 0.34 0.38 0.47 0.45 0.43 0.44 0.39 0.38 0.38 0.38 0.45 0.48 0.49 0.46 0.42 0.38 0.40 0.44 0.45 0.44 0.43 0.40 0.37 0.35 0.34 0.29 0.26 0.21 0.27 0.28 0.23 0.29 0.32 0.32 0.34 0.33 0.28 0.33
0.61 0.58 0.54 0.55 0.51 0.47 0.46 0.40 0.39 0.37 0.34 0.43 0.40 0.43 0.44 0.41 0.44 0.43 0.48 0.50 0.45 0.49 0.58 0.55 0.50 0.46 0.44 0.41 0.37 0.39 0.32 0.31 0.28 0.22 0.23 0.16 0.28 0.37 0.36 0.35 0.35 0.36 0.36 0.37
0.64 0.56 0.55 0.56 0.55 0.54 0.46 0.51 0.40 0.31 0.27 0.42 0.45 0.46 0.46 0.49 0.49 0.47 0.49 0.52 0.56 0.60 0.53 0.43 0.37 0.36 0.38 0.39 0.39 0.36 0.37 0.32 0.25 0.21 0.19 0.23 0.29 0.35 0.33 0.33 0.35 0.41 0.37 0.42
0.68 0.58 0.56 0.55 0.58 0.57 0.49 0.48 0.53 0.38 0.27 0.37 0.46 0.46 0.50 0.45 0.44 0.46 0.50 0.59 0.62 0.57 0.46 0.39 0.30 0.27 0.29 0.28 0.32 0.40 0.37 0.35 0.28 0.22 0.18 0.15 0.32 0.39 0.46 0.47 0.30 0.45 0.47 0.50
0.69 0.60 0.57 0.55 0.56 0.58 0.52 0.47 0.52 0.47 0.28 0.32 0.42 0.43 0.46 0.54 0.51 0.46 0.51 0.53 0.52 0.56 0.42 0.35 0.31 0.29 0.34 0.26 0.26 0.27 0.30 0.30 0.26 0.24 0.22 0.23 0.37 0.38 0.47 0.27 0.36 0.52 0.55 0.58
0.66 0.61 0.59 0.57 0.55 0.57 0.54 0.46 0.53 0.45 0.39 0.30 0.35 0.40 0.46 0.51 0.53 0.45 0.52 0.49 0.50 0.47 0.38 0.35 0.35 0.31 0.33 0.31 0.33 0.31 0.28 0.26 0.24 0.26 0.22 0.19 0.39 0.42 0.36 0.45 0.50 0.51 0.53 0.59
0.63 0.62 0.57 0.60 0.59 0.56 0.54 0.43 0.53 0.51 0.41 0.37 0.37 0.40 0.48 0.53 0.57 0.52 0.55 0.52 0.52 0.51 0.43 0.40 0.39 0.33 0.35 0.32 0.27 0.38 0.29 0.32 0.30 0.30 0.29 0.39 0.42 0.44 0.49 0.50 0.49 0.50 0.50 0.60
0.64 0.60 0.60 0.62 0.60 0.52 0.51 0.46 0.47 0.45 0.37 0.37 0.38 0.29 0.41 0.53 0.56 0.65 0.46 0.57 0.63 0.57 0.58 0.47 0.42 0.33 0.37 0.30 0.31 0.34 0.38 0.42 0.34 0.35 0.38 0.40 0.44 0.50 0.54 0.56 0.54 0.55 0.59 0.63
0.58 0.59 0.61 0.61 0.57 0.50 0.46 0.45 0.50 0.47 0.40 0.29 0.32 0.42 0.40 0.57 0.64 0.59 0.57 0.59 0.68 0.65 0.60 0.47 0.40 0.34 0.41 0.35 0.37 0.35 0.40 0.41 0.37 0.36 0.40 0.44 0.46 0.51 0.54 0.55 0.57 0.59 0.64 0.64
0.60 0.60 0.58 0.58 0.52 0.45 0.51 0.53 0.52 0.52 0.39 0.27 0.29 0.38 0.34 0.43 0.50 0.60 0.62 0.58 0.56 0.55 0.49 0.45 0.39 0.44 0.40 0.43 0.40 0.33 0.40 0.35 0.34 0.32 0.42 0.42 0.45 0.53 0.57 0.56 0.55 0.58 0.58 0.61
0.61 0.61 0.57 0.61 0.49 0.47 0.51 0.38 0.49 0.52 0.52 0.34 0.24 0.37 0.37 0.50 0.56 0.60 0.58 0.59 0.58 0.58 0.53 0.49 0.50 0.53 0.42 0.33 0.30 0.38 0.40 0.42 0.43 0.40 0.48 0.49 0.52 0.55 0.58 0.57 0.59 0.60 0.60 0.62
0.61 0.59 0.61 0.63 0.51 0.48 0.42 0.37 0.47 0.55 0.54 0.35 0.24 0.27 0.49 0.51 0.57 0.58 0.60 0.63 0.60 0.58 0.53 0.48 0.47 0.48 0.46 0.37 0.29 0.39 0.44 0.45 0.47 0.50 0.49 0.46 0.52 0.51 0.58 0.59 0.61 0.63 0.61 0.61
0.59 0.60 0.64 0.50 0.50 0.58 0.45 0.51 0.56 0.57 0.44 0.39 0.23 0.29 0.44 0.57 0.46 0.45 0.60 0.56 0.59 0.57 0.53 0.51 0.46 0.47 0.44 0.31 0.40 0.45 0.48 0.50 0.50 0.51 0.54 0.52 0.55 0.57 0.57 0.59 0.58 0.56 0.57 0.58
0.59 0.58 0.55 0.50 0.53 0.45 0.46 0.55 0.57 0.55 0.43 0.29 0.31 0.28 0.34 0.57 0.53 0.51 0.55 0.58 0.44 0.56 0.46 0.46 0.47 0.39 0.32 0.37 0.42 0.45 0.47 0.47 0.49 0.52 0.52 0.52 0.51 0.52 0.54 0.55 0.55 0.54 0.54 0.56
0.54 0.49 0.46 0.34 0.46 0.62 0.61 0.50 0.39 0.37 0.37 0.38 0.32 0.41 0.36 0.51 0.50 0.48 0.49 0.52 0.43 0.35 0.41 0.50 0.39 0.34 0.44 0.45 0.48 0.50 0.51 0.52 0.53 0.49 0.47 0.49 0.48 0.49 0.51 0.52 0.54 0.54 0.54 0.55
0.45 0.35 0.35 0.49 0.50 0.47 0.45 0.34 0.33 0.34 0.31 0.37 0.40 0.42 0.41 0.57 0.43 0.45 0.51 0.42 0.43 0.32 0.37 0.37 0.33 0.31 0.42 0.49 0.50 0.53 0.55 0.55 0.54 0.55 0.54 0.53 0.52 0.50 0.51 0.51 0.53 0.55 0.57 0.57
0.42 0.42 0.47 0.46 0.37 0.39 0.33 0.32 0.36 0.34 0.31 0.43 0.41 0.45 0.50 0.53 0.58 0.46 0.48 0.40 0.41 0.30 0.45 0.35 0.29 0.39 0.49 0.51 0.51 0.53 0.54 0.54 0.53 0.54 0.53 0.53 0.53 0.54 0.54 0.54 0.54 0.55 0.55 0.56
0.41 0.37 0.34 0.37 0.38 0.29 0.28 0.27 0.31 0.33 0.42 0.46 0.47 0.44 0.50 0.52 0.55 0.47 0.44 0.36 0.34 0.46 0.36 0.32 0.37 0.48 0.52 0.51 0.52 0.53 0.56 0.56 0.56 0.55 0.56 0.56 0.55 0.57 0.57 0.56 0.57 0.58 0.58 0.56
0.30 0.26 0.22 0.28 0.30 0.33 0.34 0.33 0.35 0.43 0.44 0.45 0.47 0.46 0.46 0.50 0.44 0.45 0.36 0.41 0.42 0.32 0.29 0.32 0.45 0.51 0.50 0.53 0.54 0.54 0.53 0.55 0.55 0.55 0.56 0.56 0.56 0.56 0.58 0.58 0.59 0.59 0.57 0.58
0.27 0.26 0.20 0.25 0.36 0.40 0.40 0.40 0.41 0.46 0.48 0.47 0.46 0.46 0.47 0.44 0.41 0.43 0.40 0.35 0.31 0.34 0.34 0.43 0.51 0.53 0.54 0.54 0.55 0.54 0.54 0.55 0.55 0.56 0.56 0.57 0.57 0.57 0.57 0.59 0.60 0.61 0.61 0.61
0.30 0.26 0.23 0.28 0.27 0.28 0.30 0.33 0.35 0.46 0.47 0.49 0.48 0.41 0.39 0.37 0.40 0.36 0.34 0.33 0.31 0.38 0.46 0.51 0.54 0.54 0.55 0.55 0.54 0.52 0.50 0.48 0.46 0.46 0.47 0.46 0.46 0.48 0.52 0.59 0.61 0.62 0.63 0.63
0.25 0.22 0.30 0.29 0.28 0.27 0.30 0.33 0.34 0.41 0.43 0.38 0.40 0.34 0.33 0.41 0.35 0.33 0.40 0.36 0.43 0.46 0.49 0.54 0.55 0.55 0.55 0.54 0.54 0.51 0.47 0.44 0.43 0.41 0.40 0.39 0.39 0.39 0.39 0.38 0.44 0.53 0.60 0.64
Wind_Speed
44 42 40 39 36 30 20 11 10 14 10 6 6 7 4 3 3 4 4 4 7 9 8 8 9 9 8 6 6 6 6 10 10 10 13 16 16 15 15 12 13 9 9 7
43 40 38 37 35 29 20 11 9 11 10 5 5 7 5 2 3 4 3 4 6 5 6 7 7 8 6 4 4 4 5 8 9 9 10 11 12 14 12 10 7 9 8 7
41 39 36 34 33 28 17 9 8 8 9 4 3 3 5 4 2 2 3 3 2 3 5 5 7 7 5 4 5 3 3 6 4 7 7 10 11 14 13 11 10 9 7 9
39 37 34 33 30 26 15 8 7 7 8 6 5 2 3 4 3 1 1 2 1 1 3 5 5 4 6 4 4 3 4 6 6 6 6 6 9 12 13 11 10 9 8 9
38 35 32 30 28 24 14 8 7 7 7 8 4 2 1 2 4 2 2 2 1 2 3 2 4 4 3 2 4 4 4 6 6 5 5 5 6 10 13 14 14 12 9 10
35 34 30 28 26 21 14 11 7 6 7 7 2 1 3 3 4 2 1 2 1 2 2 2 3 3 3 2 4 5 5 7 6 5 5 6 8 11 13 12 13 14 14 11
34 32 29 25 23 20 15 12 8 6 6 5 3 4 4 6 5 3 1 2 3 3 2 3 4 4 3 2 3 5 6 6 5 4 5 5 4 5 10 11 11 13 10 9
34 31 28 24 21 19 15 12 9 7 7 7 5 5 4 4 4 3 2 2 3 3 3 3 5 4 4 3 3 4 5 6 6 6 7 5 7 7 7 9 8 12 12 10
32 30 27 24 21 19 16 12 10 8 8 6 7 7 5 4 4 4 4 3 3 3 2 3 4 4 3 5 5 5 5 5 6 7 6 5 4 6 6 6 6 8 9 7
31 28 26 23 21 19 16 14 12 10 10 10 8 8 6 6 5 6 5 3 4 4 3 4 4 4 4 5 6 6 6 6 7 6 5 5 6 6 7 7 5 9 8 5
29 27 25 23 21 19 17 15 14 12 12 16 14 12 13 10 8 6 6 6 5 5 4 4 4 5 5 5 5 5 7 6 6 5 6 6 7 6 6 5 6 7 8 8
29 27 25 23 22 19 18 17 16 16 16 18 21 22 21 19 16 10 7 7 6 4 5 4 5 6 6 6 6 7 6 6 5 6 5 4 6 5 6 7 7 8 8 7
28 26 24 23 23 22 19 20 19 18 17 18 15 17 17 20 21 17 10 9 7 5 5 5 5 6 6 7 7 7 8 8 8 7 8 8 7 7 6 7 7 7 8 8
26 25 25 24 23 23 21 21 20 18 17 17 15 15 18 18 20 21 20 13 8 8 7 6 6 6 6 6 6 8 6 8 9 11 11 11 11 9 8 9 10 10 10 10
26 25 24 23 23 23 23 23 21 20 17 17 19 21 21 22 24 23 20 18 15 11 9 8 7 7 7 7 7 10 9 10 10 8 7 9 9 10 10 10 10 10 11 11
26 25 24 23 24 23 21 19 14 14 16 15 15 15 17 19 21 20 20 18 16 13 11 10 9 9 8 8 8 8 9 10 12 11 10 11 12 13 12 12 12 12 12 13
25 24 24 23 23 21 18 15 15 14 13 13 14 15 15 20 21 19 17 18 16 14 13 12 12 11 11 12 13 13 12 12 12 12 13 14 12 12 13 14 14 14 14 14
24 24 25 24 19 17 15 14 13 11 11 11 12 14 14 19 19 19 18 15 17 15 14 13 13 12 13 13 13 14 13 14 15 16 16 16 16 16 15 15 14 15 15 15
25 23 20 16 11 11 12 10 8 10 10 9 11 12 11 16 16 18 17 16 13 14 14 15 15 14 15 15 15 15 14 14 13 14 16 17 17 17 17 16 16 16 16 17
22 15 13 11 10 13 11 7 4 5 8 11 11 10 10 15 16 17 14 13 14 13 14 13 15 17 19 16 16 16 15 15 15 16 16 16 17 17 17 18 18 18 18 18
16 12 12 12 11 10 7 4 2 4 6 9 10 11 9 12 16 12 14 13 12 12 11 13 13 13 12 13 14 14 15 16 16 17 18 17 18 19 19 19 19 19 19 19
17 15 15 11 6 3 2 1 1 2 3 5 8 10 10 10 11 13 12 11 10 10 10 12 11 10 10 11 11 11 12 13 14 14 15 16 16 17 18 19 19 19 19 20
16 11 9 6 4 4 2 1 1 1 3 3 5 8 10 11 10 9 8 9 10 8 10 10 9 8 7 7 7 7 8 9 10 11 12 13 13 13 14 16 17 17 17 16
12 10 10 7 5 6 3 5 7 6 6 5 7 8 9 10 10 8 8 8 8 9 8 8 6 6 4 2 1 0 1 2 3 5 7 8 9 10 11 12 13 14 14 15
12 10 10 9 7 9 10 9 7 5 5 4 6 8 9 9 8 8 7 6 7 6 6 5 5 9 6 4 3 3 3 3 3 4 3 3 4 5 7 8 9 10 11 13
13 13 13 13 13 11 11 10 9 7 6 6 6 6 8 9 8 8 8 6 5 4 4 4 9 9 7 5 2 1 1 2 3 5 5 4 5 5 6 6 6 7 9 11
12 13 14 15 15 14 12 11 10 8 6 6 6 7 6 7 8 9 8 7 6 5 5 5 10 10 8 5 3 2 2 3 5 6 7 7 7 7 6 7 8 8 7 7
Wind_Direction
344 344 345 347 347 348 350 345 353 1 4 21 33 35 50 62 41 81 93 89 71 55 63 85 116 122 125 123 127 122 115 132 129 128 147 170 192 190 205 212 206 220 234 210
344 344 345 346 348 349 344 337 339 354 359 18 30 21 45 100 43 52 92 93 69 67 74 100 117 130 135 144 142 138 148 146 142 154 162 175 191 194 199 195 205 209 225 199
343 343 344 346 348 348 345 338 336 342 8 16 353 3 31 31 109 132 116 113 112 76 77 103 130 131 138 130 139 148 159 156 168 162 163 177 197 201 203 206 213 207 220 184
343 343 344 345 347 350 345 341 338 344 342 340 334 344 1 10 56 100 111 151 71 80 113 122 139 131 149 149 176 171 178 159 145 141 154 181 200 206 207 208 218 228 203 195
342 342 342 344 346 348 353 338 325 324 320 324 309 341 6 305 9 45 128 118 87 89 132 157 174 174 192 177 179 179 183 177 180 182 190 209 211 214 215 220 226 227 215 210
339 339 340 342 346 349 348 343 315 306 303 333 301 272 266 274 305 182 169 219 166 113 102 173 194 182 182 191 202 187 192 180 200 202 210 215 219 219 213 216 222 222 224 223
337 337 338 338 341 345 340 340 316 296 287 317 314 278 274 276 276 245 227 218 205 166 193 195 168 160 163 175 186 206 200 201 212 201 208 226 206 208 220 208 213 216 218 217
332 333 332 332 332 335 334 328 323 287 277 280 284 304 275 270 247 213 201 162 173 205 209 209 203 203 207 176 183 192 203 203 203 213 214 197 205 207 195 201 210 216 212 214
328 327 326 325 326 327 324 317 315 292 270 242 269 272 272 237 231 208 183 188 194 206 224 226 224 224 209 199 200 198 196 199 211 202 207 205 182 186 198 212 201 188 192 204
324 323 323 322 318 318 315 308 303 290 269 249 261 244 247 236 230 221 206 230 222 232 242 238 229 202 217 207 206 202 202 207 208 198 212 214 195 202 203 217 195 192 205 220
321 319 317 316 313 313 309 301 296 283 270 266 245 244 241 242 225 219 236 231 218 231 234 243 222 224 205 217 206 209 206 202 207 209 213 219 199 198 216 198 193 210 227 232
317 315 313 311 312 308 302 298 293 284 266 260 261 253 245 235 234 235 229 230 237 235 239 234 234 224 221 226 210 211 216 220 223 224 217 208 202 224 226 233 241 242 240 231
321 317 313 310 309 307 298 293 291 286 274 271 246 240 236 227 225 223 227 222 231 232 240 249 244 238 234 227 225 232 225 226 233 238 222 228 238 235 233 239 246 244 232 237
314 315 312 309 308 305 297 292 287 279 275 258 248 243 232 226 222 223 224 231 233 244 243 242 238 236 226 232 237 239 240 226 238 246 243 239 241 235 251 253 249 245 243 245
316 313 312 310 309 305 299 293 283 270 263 257 256 260 242 229 222 223 224 227 232 237 238 236 235 232 233 235 245 246 235 239 237 251 242 249 232 244 255 257 254 251 250 251
317 312 310 310 310 306 303 297 283 269 255 256 245 237 233 220 213 216 217 221 223 229 233 233 238 238 241 246 250 253 242 248 249 253 254 256 259 255 251 256 257 255 254 251
319 315 312 310 310 305 296 284 281 276 252 251 241 229 223 213 209 213 216 219 225 228 232 237 242 242 245 255 252 259 260 255 251 254 260 258 257 254 258 255 256 256 255 252
320 315 315 314 311 314 308 287 267 255 250 241 226 221 220 206 208 211 212 218 223 228 231 240 241 246 252 258 261 264 261 259 258 258 261 262 260 259 257 256 257 259 257 256
319 316 316 318 319 326 327 313 262 247 235 223 212 211 214 203 207 204 212 216 223 232 236 243 246 250 251 259 261 261 262 263 262 263 264 262 260 258 257 256 258 260 260 258
320 317 318 314 318 324 326 320 284 237 217 208 211 210 219 208 202 202 205 215 228 235 240 248 252 256 260 262 265 264 263 263 262 264 267 264 262 259 257 257 259 262 261 260
316 311 311 309 308 317 327 314 271 206 206 202 210 212 212 203 200 204 210 221 229 241 241 248 258 261 258 258 258 260 261 263 264 265 263 265 264 260 259 260 262 264 264 261
303 298 301 304 292 296 321 6 80 172 196 204 208 201 199 189 195 203 215 221 229 243 241 250 256 257 255 258 257 257 260 265 267 267 265 266 266 263 260 260 263 265 265 264
299 283 286 278 254 239 249 307 27 292 295 234 214 201 192 187 190 191 207 216 233 239 242 249 256 250 251 253 254 258 266 268 269 270 268 266 266 264 262 263 264 265 264 260
289 273 269 254 238 231 253 296 306 296 296 260 212 200 198 197 199 204 217 227 234 242 240 243 235 214 195 182 181 252 302 300 299 289 283 271 264 265 266 267 269 267 261 257
275 259 249 243 250 257 258 277 293 295 298 236 209 204 200 198 202 206 215 225 238 239 241 239 213 183 175 156 125 92 66 45 24 2 332 312 292 282 280 282 278 268 262 258
266 250 250 252 259 259 265 263 272 281 294 225 217 211 207 207 211 214 220 233 239 242 237 235 193 186 182 175 169 115 37 15 7 6 356 337 320 305 298 295 298 288 278 266
261 251 253 256 258 256 256 258 256 266 258 228 228 217 211 216 220 222 224 238 248 259 243 238 196 194 196 205 219 247 298 321 327 326 331 330 326 317 306 302 302 297 294 288